Regional Weather Roundup
Issued by NWS Wakefield, VA

Home | Current Version | Previous Version | Text Only | Print | Product List | Glossary On
Versions: 1 2 3 4 5 6 7 8 9 10 11 12 13 14 15 16 17 18 19 20 21 22 23 24 25 26 27
000
ASUS41 KAKQ 251415
RWRAKQ

REGIONAL WEATHER ROUNDUP
NATIONAL WEATHER SERVICE WAKEFIELD VA
1000 AM EDT THU MAY 25 2017

Note: "fair" indicates few or no clouds below 12,000 feet with no
significant weather and/or obstructions to visibility. * = Denotes
station may not report precipitation (e.g., rain,snow,etc.),
thunder or fog.

VAZ042-051-052>054-056-251500-
NORTHERN VIRGINIA

CITY           SKY/WX    TMP DP  RH WIND       PRES   REMARKS
WASH NATIONAL  CLOUDY    62  61  96 NW7       29.50R FOG
DULLES         CLOUDY    61  57  87 VRB5      29.50S
FORT BELVOIR   CLOUDY    63  59  88 CALM      29.50R
QUANTICO       LGT RAIN  62  61  96 NW5       29.51S
FREDERICKSBRG* CLOUDY    63  63 100 SW6       29.51R
STAFFORD*      CLOUDY    62  62 100 SW6       29.55S
WARRENTON      CLOUDY    63  56  78 CALM      29.52R
CULPEPER*      CLOUDY    64  59  83 CALM      29.53R
MANASSAS*      CLOUDY    61  57  87 NW5       29.52R
LEESBURG*      CLOUDY    61  61 100 NE5       29.52S
WINCHESTER     CLOUDY    57  54  88 CALM      29.52S
FRONT ROYAL*   PTSUNNY   59  55  88 CALM      29.52S
LURAY*         CLOUDY    61  57  88 SW5       29.53S
$$

VAZ048-049-060>072-079>083-251500-
CENTRAL AND SOUTH CENTRAL VIRGINIA

CITY           SKY/WX    TMP DP  RH WIND       PRES   REMARKS
RICHMOND       MOSUNNY   68  62  81 SW13      29.52R
CHESTERFIELD*  NOT AVBL
PETERSBURG*    MOSUNNY   68  60  76 CALM      29.54S
HANOVER        MOSUNNY   68  60  75 SW9       29.53S
TAPPAHANNOCK*  SUNNY     67  63  86 S8        29.52R
QUINTON*       FAIR      67  62  84 S6        29.52S
CHARLOTTSVILLE PTSUNNY   65  58  78 SW7       29.52S
GORDONSVILLE*  CLOUDY    64  60  87 S8        29.51S
ORANGE*        CLOUDY    63  57  82 CALM      29.52S
LOUISA*        CLOUDY    64  63  94 CALM      29.51S
BUMPASS*       CLOUDY    62  61  99 SW5       29.53R
FARMVILLE*     CLOUDY    66  58  75 SW8       29.52F
CREWE*         CLOUDY    67  63  86 W5        29.54S
FORT PICKETT*  FAIR      67  63  85 SW8       29.54S
CHASE CITY*    CLOUDY    65  62  87 SW6       29.54S
CLARKSVILLE*   PTSUNNY   68  63  83 SW8G16    29.54S
SOUTH HILL*    CLOUDY    67  63  85 S10       29.61S
LAWRENCEVILLE* CLOUDY    67  62  84 SW8       29.55S
EMPORIA*       CLOUDY    68  61  77 SW5       29.56S
$$

VAZ088>098-251500-
SOUTHEAST VIRGINIA

CITY           SKY/WX    TMP DP  RH WIND       PRES   REMARKS
NORFOLK        MOSUNNY   73  67  81 SW15G23   29.53S
VIRGINIA BEACH CLOUDY    73  66  78 SW9       29.53R
NORFOLK NAVAL  PTSUNNY   73  62  68 W13       29.55S
WEST POINT*    PTSUNNY   70  61  73 SW8       29.53S
SALUDA*        FAIR      70  62  75 SW7       29.51S
NEWPORT NEWS   CLOUDY    70  62  76 SW12      29.54R
LANGLEY AFB    CLOUDY    70  63  79 W9        29.53R
FORT EUSTIS    PTSUNNY   71  63  76 SW9       29.52R
WILLIAMSBURG*  CLOUDY    70  63  78 CALM      29.55R
HR EXEC AP*    FAIR      72  64  78 W8        29.53R
FRANKLIN*      MOSUNNY   70  60  69 W7        29.56S
US460-WAKEFLD  SUNNY     70  63  78 VRB6      29.55R
$$

VAZ020-022-025-037-045-251500-
WEST CENTRAL AND SOUTHWEST VIRGINIA

CITY           SKY/WX    TMP DP  RH WIND       PRES   REMARKS
STAUNTON*      CLOUDY    60  56  88 CALM      29.54F
WAYNESBORO*    CLOUDY    61  60  96 CALM      29.53S
HOT SPRINGS VA FOG       39  39 100 W17       29.58S VSB 1/2
LYNCHBURG      CLOUDY    63  59  87 S8        29.55S
DANVILLE       CLOUDY    64  62  93 SW7       29.55S
SOUTH BOSTON*  CLOUDY    66  63  89 SW6       29.55R
MARTINSVILLE   LGT RAIN  60  58  90 NW7       29.58S
ROANOKE        PTSUNNY   63  53  70 W14       29.57R
BLACKSBURG     PTSUNNY   56  50  82 SW6       29.61F
DUBLIN*        SUNNY     60  46  59 W9G18     29.60F
MARION*        CLOUDY    55  48  79 W16       29.64S
HILLSVILLE*    SUNNY     56  42  60 W5        29.59S
RICHLANDS*     LGT RAIN  50  19  29 SW9       29.62F
WISE*          CLOUDY    52  52 100 SW10G16   29.63R
ABINGDON*      CLOUDY    55  51  86 W9        29.64S
$$

MDZ021>025-VAZ099-100-251500-
SOUTHERN MARYLAND AND THE DELMARVA PENINSULA

CITY           SKY/WX    TMP DP  RH WIND       PRES   REMARKS
PATUXENT RIVER PTSUNNY   69  64  84 SW16      29.49R
BAY BRIDGE APT CLOUDY    64  64 100 SE7       29.47R
LEONARDTOWN    PTSUNNY   66  61  82 SW10G17   29.51R
DOVER          CLOUDY    63  63 100 E10G20    29.49F
GEORGETOWN       N/A     69  67  93 S8        29.50F
EASTON         CLOUDY    72  66  83 S15       29.50F
CAMBRIDGE      PTSUNNY   72  68  88 S8G24     29.48S
SALISBURY      CLOUDY    72  69  90 S10G18    29.50S
OCEAN CITY     CLOUDY    65  64  97 SW7       29.53S
WALLOPS ISLAND CLOUDY    69  67  93 S18       29.53S
ACCOMACK*      CLOUDY    72  27  18 S8        29.52S
$$

NCZ012>017-030>032-251500-
NORTH CENTRAL AND EASTERN NORTH CAROLINA

CITY           SKY/WX    TMP DP  RH WIND       PRES   REMARKS
ROANOKE RAPIDS PTSUNNY   70  63  78 SW9G18    29.56R
RALEIGH        PTSUNNY   68  61  78 SW17      29.58R
ELIZABETH CITY CLOUDY    75  71  87 S16       29.56S
AHOSKIE*         N/A     72  64  76 CALM      29.56S
EDENTON*       CLOUDY    75  69  83 SW13G18   29.57S
CURRITUCK*     CLOUDY    74  72  94 S5        29.56S
KILL DEVIL HLS CLOUDY    74  70  89 CALM      29.57F
MANTEO         CLOUDY    74  68  81 SW13      29.59S
CAPE HATTERAS  NOT AVBL
TARBORO*       NOT AVBL
GOLDSBORO      MOSUNNY   74  66  76 SW20G25   29.56S
WASHINGTON     PTSUNNY   73  66  80 SW13G18   29.57S
GREENVILLE     MOSUNNY   73  68  83 SW9       29.60S
NEW BERN       MOSUNNY   75  65  70 SW16G24   29.61R
WILMINGTON     MOSUNNY   75  60  59 SW22G30   29.63R
$$

VAZ048-251500-
ELSEWHERE

CITY           SKY/WX    TMP DP  RH WIND       PRES   REMARKS
HARRISBURG PA  LGT RAIN  57  56  96 E13       29.52F FOG
BALTIMORE      DRIZZLE   59  59 100 NE12      29.47F FOG
ANNAPOLIS      CLOUDY    66  65  96 SE3       29.47S
ANDREWS AFB    CLOUDY    62  62 100 W7        29.48R
PHILADELPHIA   LGT RAIN  57  55  93 E14       29.57S
HENDERSON NC   CLOUDY    64  59  83 SW13G18   29.56S
GREENSBORO     PTSUNNY   64  61  90 W10       29.56S
ROCKY MOUNT    PTSUNNY   70  64  81 SW13      29.57R
$$

VAZ100-251500-
MARINE

STATION/POSITION TIME  TEMP    WIND        PRES    WAVE   SWELL
                       AIR SEA DIR/SP/G            HT/PER HT/PER
                 (UTC) (F)     (DEG/KT/KT) (MB)    (FT/S) (FT/S)
CAPE MAY NJ      1348   62 60  110/ 11/ 16  999.3F
LEWES DE         1342   63 61  150/  8/ 11  999.1F
15NM E FENWICK I 1350   62 56  160/ 14/ 16 1000.0F   4/ 6   2/ 7
WACHAPREAGUE VA  1348   68 64  200/  8/ 15  999.4R
THOMAS POINT MD  1400   66 64  160/ 13/ 14   N/A
GOOSES REEF MD   1400   68 62  250/ 16/ 19  998.5    2/ 3
COVE POINT MD    1348   68     230/ 19/ 24  998.7R
SOLOMONS ISLAND  1342   68 66  220/ 16/ 18   N/A
BISHOPS HEAD MD  1348   69 64  190/ 17/ 21  998.8R
PINEY POINT MD   1342          230/ 12/ 13   N/A
POTOMAC MD       1400   69 66  230/ 10/ 12  997.9    2/ 3
CAMBRIDGE MD     1342   71 67                N/A
LEWISETTA VA     1348   69 67  250/  9/ 12  998.8R
RAPPAHANNOCK LGT 1342          190/ 15/ 16 1000.2R
STINGRAY PT      1350   70     260/ 12/ 14  999.5R
YORK RVR RNG VA  1348   68     230/ 11/ 12  999.4R
YORKTOWN VA      1348   68 68  210/  8/ 12  999.7R
JAMESTOWN VA     1400   68 71  200/  8/ 12   N/A
DOMINION TERM VA 1348   69     270/  6/  7 1000.3R
KIPTOPEKE VA     1348      65  210/  8/  9   N/A
CHES BAY BRIDGE  1348   72 64  220/ 14/ 16  999.6R
CAPE HENRY VA    1348   73     210/  9/ 14   N/A
WILLOUBY STN VA  1348   68     260/ 12/ 13  999.9R
S CRANEY ISL VA  1348   72     250/  8/ 11 1000.0R
CAPE HENRY BUOY  1342      62                N/A     4/ 6
1ST LANDING BUOY 1400   71 66              1000.1    2/ 3
CAPE CHARLES BUO 1351      61                N/A     4/ 7
64NM E OF VA BCH 1350   68 65  200/ 16/ 17 1002.2R   6/ 7   3/ 8
DUCK PIER NC     1348   73 63  190/ 16/ 20 1000.9R
44100 DUCK FRF   1305      64                N/A     4/ 8
44056 DUCK FRF   1330      65                N/A     3/ 6
OREGON INLET NC  1342   73 69  210/ 11/ 16 1001.9R
HATTERAS NC      1348   76 73  210/ 11/ 18 1002.6R
DIAMOND SHLS NC  1350   77 78  230/ 19/ 23 1002.8R   8/ 7
CAPE LOOKOUT NC  1300   76     220/ 13/ 16 1002.2R
$$




USA.gov is the U.S. government's official web portal to all federal, state and local government web resources and services.